Dewpoint
41 42 44 47 47 47 47 47 46 47 47 43 41 39 38 37 36 35 34 33 33 32 33 34 35 35 34 35 35 34 33 33 34 31 30 28 29 28 20 28 25 27 26
40 42 44 46 47 47 47 47 47 48 46 42 41 39 38 37 37 36 35 34 34 34 35 35 35 36 35 35 34 33 31 33 34 29 32 26 24 28 23 26 28 26 27
38 41 43 46 47 47 47 47 48 48 46 43 41 40 39 37 36 35 35 36 36 36 36 36 36 37 35 32 32 30 30 28 31 31 27 19 24 28 28 25 27 26 28
37 40 42 45 46 47 47 48 48 48 47 43 40 38 36 34 35 34 35 36 36 37 37 35 33 32 31 27 28 29 29 29 24 28 30 30 30 26 23 28 24 28 29
37 40 42 44 46 47 47 48 49 49 47 42 40 38 36 36 36 34 34 35 36 34 34 31 28 27 26 24 22 22 21 27 23 23 27 28 26 28 28 23 24 26 27
36 40 42 45 46 47 48 48 48 48 46 42 40 38 36 36 33 32 33 34 36 33 30 26 24 22 21 20 21 20 19 20 19 21 22 20 19 19 22 20 20 22 24
36 40 43 44 46 47 47 48 48 47 45 43 40 38 37 35 33 32 33 35 34 29 25 22 20 19 19 19 20 20 19 19 19 20 19 20 21 23 23 22 20 20 22
35 40 43 44 46 46 46 47 47 46 44 42 40 37 36 34 33 34 35 34 30 27 21 20 19 18 19 19 20 20 21 21 21 20 20 21 22 23 22 22 22 20 18
36 41 43 44 45 45 45 44 45 43 42 41 38 36 35 35 34 32 30 26 24 21 18 18 18 19 20 20 21 21 21 21 21 21 22 22 22 23 23 25 23 22 20
37 41 43 44 44 43 42 42 41 39 38 37 36 35 33 31 28 26 23 21 19 18 18 20 20 20 21 22 22 21 22 21 20 21 20 21 22 23 24 25 25 25 23
38 42 43 44 42 40 39 38 38 37 36 35 33 31 28 25 23 21 19 18 20 21 20 20 20 20 21 21 20 20 20 19 20 21 21 22 23 23 24 25 25 25 25
39 42 43 42 39 38 37 37 36 36 33 30 28 26 24 22 20 20 21 22 19 19 19 20 19 20 20 20 20 20 21 21 21 22 22 22 23 23 25 25 25 25 25
41 43 42 39 38 37 36 36 35 33 30 27 25 23 21 21 22 22 20 18 18 19 19 19 19 19 21 21 22 22 22 22 22 23 23 23 24 24 25 25 25 25 25
42 42 41 39 37 36 36 34 32 30 27 25 23 22 22 21 18 17 17 18 19 18 18 19 20 21 22 22 22 22 23 23 24 24 25 25 25 24 24 25 25 25 25
41 40 39 37 36 34 32 30 28 26 24 23 22 21 19 17 17 17 17 17 17 18 20 21 21 21 21 20 23 24 24 25 24 25 25 25 25 26 26 25 25 25 25
39 38 36 34 33 31 28 25 24 23 22 21 20 16 15 16 15 16 16 17 19 20 20 20 20 20 21 23 24 25 25 25 25 24 25 25 25 25 25 25 26 26 26
37 35 33 31 29 26 23 21 20 20 18 15 14 14 14 14 15 17 18 19 19 20 20 20 20 21 21 24 25 25 25 25 24 25 25 25 24 25 26 27 26 26 28
35 32 29 26 23 21 19 18 16 14 12 12 12 13 14 16 18 18 19 19 20 19 19 20 21 21 21 25 24 25 25 26 26 25 24 24 24 25 25 25 27 27 27
31 27 23 19 18 17 15 14 13 12 12 12 14 16 17 18 19 18 19 19 19 19 20 21 21 21 21 24 25 24 24 23 23 23 24 25 25 26 25 26 30 28 29
19 17 17 16 14 13 13 12 11 11 13 15 17 18 19 18 18 19 19 19 19 21 22 21 21 22 21 25 23 23 23 22 22 23 25 26 25 25 26 28 24 24 23
14 14 14 12 11 10 10 10 12 14 18 19 19 19 19 18 19 19 19 20 21 21 20 20 21 21 23 25 23 24 23 23 24 25 25 27 27 29 24 22 23 23 26
12 11 10 10 11 12 12 14 16 18 19 19 18 18 18 17 18 18 20 21 20 20 21 21 22 24 25 25 24 24 25 26 27 26 26 26 29 22 22 23 23 23 23
11 11 11 12 14 15 15 16 17 18 18 18 18 17 17 18 20 20 20 20 20 21 22 22 23 25 25 24 25 26 28 28 26 26 26 26 22 23 23 23 22 22 23
11 12 12 13 13 15 16 17 18 19 18 17 17 18 20 21 21 21 21 22 22 21 21 23 24 23 24 24 25 26 29 28 28 28 27 22 23 23 22 22 22 23 23
12 12 13 14 15 17 17 19 19 18 17 17 18 20 21 20 20 21 24 24 22 22 21 21 22 22 22 23 25 24 23 27 22 26 22 22 22 21 21 21 21 22 21
14 15 16 16 17 18 19 18 18 18 18 18 19 21 20 20 21 23 23 23 21 21 21 21 21 22 23 23 25 22 24 20 21 22 21 21 21 21 20 21 21 22 22
Wind_Speed
21 21 22 22 22 21 21 22 24 21 21 19 19 17 19 17 15 14 15 14 13 13 14 12 10 10 12 10 10 6 10 12 15 8 10 8 7 6 15 13 12 15 16
23 24 24 24 25 24 22 22 23 21 20 18 13 13 15 11 13 13 13 13 13 12 12 12 10 9 9 10 10 11 6 6 12 7 3 8 7 10 18 15 13 16 15
32 28 28 29 25 25 23 23 22 21 19 19 18 15 15 12 9 11 11 10 13 12 12 10 9 9 8 9 8 9 9 8 6 10 6 5 4 13 5 12 13 18 16
33 32 32 30 30 26 21 20 21 22 20 22 22 24 15 17 10 12 11 12 12 11 11 10 9 8 7 8 7 7 6 5 9 3 7 1 3 4 11 5 15 10 12
37 36 37 34 31 27 25 23 22 21 20 20 22 21 21 11 14 15 16 13 10 10 9 9 8 7 6 5 6 5 6 4 4 4 4 3 5 8 7 14 18 19 14
32 31 31 29 28 25 24 23 25 22 21 21 21 24 25 21 19 17 17 13 9 8 7 7 6 5 4 3 3 2 4 4 4 4 4 7 5 11 8 11 15 13 15
33 33 33 32 29 30 27 23 24 22 21 22 22 23 24 23 23 21 17 15 12 6 6 4 3 2 2 2 2 3 5 6 6 7 8 8 10 9 12 14 16 14 16
37 39 38 34 32 31 29 25 24 23 22 22 22 19 21 18 17 17 16 14 12 9 6 5 2 1 2 3 4 4 6 7 7 10 9 11 13 12 12 11 15 21 17
38 38 36 34 32 30 29 28 25 23 21 21 20 20 19 20 19 17 15 11 9 7 6 3 2 3 4 5 5 6 8 8 9 10 11 11 11 13 13 13 13 14 21
34 34 34 33 30 28 25 25 25 25 20 21 21 20 19 19 19 17 14 11 8 6 4 3 3 5 6 6 6 8 8 9 10 9 11 13 12 13 13 13 13 14 18
35 34 32 29 28 26 26 25 24 24 22 22 20 23 20 19 17 15 12 10 7 5 3 2 3 5 6 7 7 8 9 9 12 12 11 13 11 12 12 13 13 15 14
30 31 31 30 28 28 26 26 24 24 22 21 22 22 20 18 16 14 11 8 6 4 2 3 4 5 7 8 8 10 11 12 13 14 13 14 12 15 13 13 16 15 16
29 28 28 29 30 28 26 25 23 23 22 22 23 20 19 17 15 12 9 7 5 3 3 3 5 7 8 9 9 10 11 12 12 14 14 15 15 16 15 16 16 15 16
31 30 28 28 28 27 27 26 23 23 22 22 21 20 18 16 13 10 8 6 4 3 4 5 6 7 8 9 10 10 12 13 12 13 13 15 15 17 17 17 17 16 17
28 28 28 27 27 26 25 24 23 23 22 22 20 19 15 13 11 9 7 5 5 4 4 5 6 8 9 7 11 11 12 12 13 13 13 13 15 20 21 19 18 18 18
27 26 27 28 28 28 26 26 24 22 22 21 20 17 15 12 10 8 6 5 4 4 5 7 8 10 8 12 14 15 12 12 13 15 13 13 16 17 22 25 26 24 22
26 27 28 28 26 27 27 26 24 22 22 21 18 16 14 12 9 8 6 4 3 4 6 7 8 9 10 13 14 16 13 12 11 12 13 14 14 20 18 21 24 21 24
28 26 26 25 24 24 24 24 23 22 21 19 17 14 12 11 8 6 4 3 2 4 5 7 8 9 10 12 16 16 11 10 11 12 14 15 17 16 21 20 20 19 18
25 24 25 26 25 25 24 25 22 21 20 18 15 12 11 9 6 4 2 1 1 4 5 6 9 9 10 13 14 18 11 11 13 12 13 16 16 20 26 22 20 21 20
28 28 26 26 26 21 23 25 22 20 19 16 13 11 9 7 5 2 1 1 1 4 5 8 8 8 10 9 18 15 11 12 12 12 13 17 20 26 26 22 20 20 21
30 28 27 26 24 21 23 23 20 19 15 14 12 9 7 5 3 3 1 1 2 4 6 8 8 8 8 11 16 16 13 13 14 13 14 13 22 25 26 26 16 20 24
29 30 29 24 20 21 24 21 20 15 14 12 11 8 6 5 3 2 2 0 3 5 7 8 8 9 10 13 15 17 17 19 15 15 14 15 20 23 22 20 22 24 21
28 26 28 25 19 19 20 21 14 14 13 12 9 7 6 5 5 4 3 4 5 4 7 7 8 10 10 12 16 17 19 18 15 13 18 20 20 19 17 19 23 22 16
28 27 27 24 21 18 17 17 14 13 12 10 8 6 8 7 6 5 5 4 3 6 8 6 8 10 10 12 12 12 11 12 13 14 11 16 17 17 17 16 15 14 14
23 23 23 22 19 18 16 14 13 12 11 9 8 7 7 5 5 5 2 4 4 6 7 6 7 9 10 11 16 17 14 13 15 13 11 13 13 14 14 15 15 14 16
23 22 21 21 18 16 15 12 10 10 9 8 6 5 3 2 3 3 5 7 7 8 8 9 9 8 11 16 16 17 19 20 19 11 12 13 13 14 15 16 16 16 18
Wind_Direction
186 180 175 169 170 172 171 164 156 152 138 137 134 132 132 123 116 115 117 112 112 107 102 97 89 76 68 55 45 25 18 16 4 9 347 334 356 24 12 9 358 14 0
179 182 176 173 175 175 172 166 162 157 147 147 144 136 135 124 125 122 112 115 113 110 104 101 88 81 74 56 44 38 19 12 21 8 340 359 339 351 336 360 3 360 357
185 184 180 178 174 176 174 169 165 159 149 140 125 115 109 109 115 119 119 117 116 113 109 102 97 90 80 66 51 37 38 16 2 21 52 353 323 333 324 335 1 337 347
189 181 181 178 176 176 171 166 165 160 150 144 143 148 148 151 159 144 137 130 124 117 113 109 98 91 82 64 51 43 32 27 15 3 21 357 272 333 320 305 325 339 322
184 184 184 179 175 170 172 168 166 160 154 149 151 151 152 149 145 139 139 137 129 123 120 112 103 92 79 73 57 36 27 25 3 0 342 323 291 252 257 289 317 322 321
187 186 183 175 170 167 165 167 167 164 158 154 156 158 158 153 149 151 150 150 143 129 123 113 103 99 84 58 41 0 346 346 329 322 317 319 315 303 305 296 301 287 294
186 180 179 177 169 168 167 169 166 165 161 161 163 161 160 159 161 161 159 155 155 150 151 134 111 84 57 0 341 323 316 316 310 306 302 294 286 285 291 292 295 292 307
188 183 177 175 171 168 165 168 165 161 160 160 163 156 155 155 155 159 159 161 163 157 158 139 118 47 358 332 325 310 307 303 303 303 299 298 299 297 295 293 300 305 302
182 179 172 172 170 167 164 162 159 156 160 159 156 153 147 147 152 149 148 147 143 145 140 109 32 5 351 337 325 309 306 309 307 306 305 303 300 300 298 295 292 294 306
175 172 170 168 169 161 155 153 152 155 152 146 147 145 142 140 140 141 140 139 134 124 105 57 19 354 345 335 326 317 316 313 310 309 307 306 305 306 306 306 299 293 291
174 168 164 163 159 150 149 145 142 142 143 140 139 139 138 137 136 135 136 137 129 119 93 44 2 346 335 333 327 319 310 309 311 313 306 303 304 299 300 297 291 290 292
162 160 156 154 150 148 144 143 142 141 141 138 136 137 135 135 133 133 134 132 126 109 79 37 360 339 327 323 320 317 313 314 312 306 306 302 301 298 290 285 287 289 290
154 152 151 153 150 146 143 141 142 139 137 136 136 137 137 135 135 134 132 123 119 89 40 16 348 328 322 322 318 311 310 309 302 298 298 297 296 296 291 287 288 287 285
153 152 153 154 148 145 143 140 138 138 137 137 138 139 141 139 136 133 126 116 98 58 17 357 337 330 330 327 318 317 311 302 296 295 294 291 288 288 288 289 285 285 285
154 155 151 147 140 138 137 136 135 137 138 137 139 141 137 132 128 123 115 102 66 37 11 2 346 339 336 320 322 314 308 306 305 298 293 289 285 296 302 301 298 296 296
154 148 144 140 139 140 139 136 136 137 136 138 139 137 133 129 125 117 104 79 56 34 15 357 346 335 330 325 323 324 317 313 309 307 301 298 298 298 304 305 301 297 296
149 144 143 141 141 140 138 136 135 132 133 135 135 134 133 127 119 106 93 70 43 19 2 345 335 328 322 324 328 327 320 317 318 313 310 304 303 307 298 295 299 301 296
143 140 135 132 132 129 126 125 128 130 131 131 132 130 128 121 111 103 86 55 30 14 341 327 324 320 322 335 329 324 333 317 312 307 303 297 299 295 303 301 299 290 281
135 131 129 126 123 125 127 125 126 126 127 131 130 128 124 119 111 92 78 74 22 341 325 315 320 327 323 331 330 327 320 312 305 301 296 294 296 297 305 314 312 311 302
126 125 124 122 120 124 124 124 128 128 130 132 128 120 117 115 112 125 126 94 5 316 316 321 329 324 326 322 327 328 317 307 305 293 286 294 304 311 316 320 318 313 308
123 121 123 123 122 123 122 123 126 128 128 122 118 114 109 112 120 112 85 55 330 321 331 331 325 315 306 318 325 327 323 314 311 310 306 300 309 318 322 321 319 304 312
120 120 117 116 116 118 121 124 122 125 120 117 112 104 94 79 83 101 93 25 345 350 339 326 318 317 312 314 319 322 322 320 319 315 310 305 321 328 327 329 316 323 330
116 116 115 112 110 114 121 121 127 122 116 107 100 94 84 75 77 82 38 6 10 2 333 317 320 316 306 307 314 320 320 322 320 315 315 329 325 327 323 318 327 327 318
116 116 113 113 113 113 111 115 117 112 110 110 104 95 96 84 53 32 25 23 29 337 323 327 312 307 311 309 302 299 300 309 318 316 320 329 330 324 319 318 313 311 311
108 111 112 112 112 110 109 112 116 118 114 110 103 95 94 68 50 26 9 16 327 319 332 321 317 322 318 309 329 339 338 333 325 341 332 327 321 321 323 324 321 325 326
110 105 106 112 115 114 115 114 110 110 111 105 103 118 107 70 60 28 355 0 358 353 353 340 337 328 328 333 341 342 343 340 329 345 324 317 320 321 326 326 322 321 320